Погода в Стур-Дигоре

Россия / Республика Северная Осетия — Алания     42°54′08″N   43°39′14″E
темп.,
°C
ветер,
м/с
пор.,
м/с
влажн.,
%
обл.,
%
осадки,
мм/ч
давл.,
гПа
погр.,
м
10 апреля, сб
сб1000:00+2ююз239593 0.6 1014106
03:00+1ю239599 2.6 1014117
06:00+1ююз239791 1.1 101497
09:00+3ю239350 1.3 1013154
12:00+5ю149098 0.3 1013225
15:00+3в1296100 0.5 1014214
18:00+2ююз1299100 0.0 1016131
21:00+2ю2396100 3.7 1016115
11 апреля, вс
вс1100:00+2ююз3595100 8.7 1016152
03:00+3ююз459073 12.5 101597
06:00+2ююз348559 0.1 101578
09:00+5ююз4683100 0.3 1014239
12:00+5ююз248498 0.0 1013189
15:00+5ю1385100 0.1 1014285
18:00+3ю239274 0.0 1015133
21:00+2ююз3486100 0.1 101580
12 апреля, пн
пн1200:00+4ююз348655 0.3 1014114
03:00+2ююз56837 0.6 1015128
06:00+1ююз44804 0.0 101750
09:00+5св128054 0.0 1016430
12:00+3св219394 0.2 1017341
15:00+3св3298100 0.9 1018379
18:00+1св2299100 0.6 1020266
21:00+1св1099100 0.8 1020146
13 апреля, вт
вт1300:00+1всв1198100 1.5 1019179
03:00+1ююв1196100 7.5 101944
06:00+1зюз0197100 4.3 1019104
09:00+1з019684 13.3 1019177
12:00+2в129999 1.5 1018274
15:00+2св2299100 2.7 1019353
18:000св23100100 3.6 1021187
21:00−1всв1199100 12.1 1022142
14 апреля, ср
ср1400:00−2юв0099100 7.3 102142
03:00−1ююз1198100 9.4 101985
06:00−1юз2294100 0.4 101872
09:00+1ююв0297100 0.7 1017288
12:00+2юв1310089 0.3 1016406
15:00+2ю0210064 0.5 1017355
18:000ю129444 0.1 1019112
21:00−4юз438212 0.1 102338